| time (UTC) | temp F | wind direction | speed knots | gust knots | rain 1hr in | rain 24hr in | rain mn in | humidity % | barometer mb |
| 20260906023059 | 77 | 346 | 10.4 | 12.2 | 0.00 | 0.08 | 0.08 | 60 | 1013.7 |
| 20260906021552 | 77 | 360 | 7.8 | 9.6 | 0.00 | 0.08 | 0.08 | 60 | 1013.5 |
| 20260906020051 | 78 | 355 | 7.8 | 9.6 | 0.00 | 0.08 | 0.08 | 58 | 1013.3 |
| 20260906014554 | 78 | 360 | 7.8 | 11.3 | 0.00 | 0.08 | 0.08 | 57 | 1013.3 |
| 20260906013051 | 79 | 317 | 7.0 | 8.7 | 0.00 | 0.08 | 0.08 | 55 | 1013.2 |
| 20260906011551 | 78 | 15 | 1.7 | 5.2 | 0.00 | 0.08 | 0.08 | 55 | 1013.2 |
| 20260906010052 | 79 | 84 | 2.6 | 8.7 | 0.00 | 0.08 | 0.08 | 54 | 1013.1 |
| 20260906004548 | 78 | 46 | 1.7 | 4.3 | 0.00 | 0.08 | 0.08 | 58 | 1013.3 |
| 20260906003048 | 78 | 26 | 2.6 | 8.7 | 0.00 | 0.08 | 0.08 | 59 | 1013.0 |
| 20260906001546 | 79 | 5 | 7.0 | 10.4 | 0.00 | 0.08 | 0.08 | 59 | 1013.0 |
| 20260906000055 | 78 | 18 | 7.0 | 8.7 | 0.00 | 0.08 | 0.08 | 58 | 1012.9 |
| 20260905234550 | 79 | 32 | 6.1 | 10.4 | 0.00 | 0.08 | 0.08 | 57 | 1012.6 |
| 20260905233047 | 79 | 355 | 8.7 | 11.3 | 0.00 | 0.08 | 0.08 | 58 | 1012.6 |
| 20260905231545 | 78 | 355 | 10.4 | 13.9 | 0.00 | 0.08 | 0.08 | 61 | 1012.7 |
| 20260905230045 | 77 | 355 | 10.4 | 17.4 | 0.00 | 0.08 | 0.08 | 62 | 1013.1 |
| 20260905224543 | 79 | 331 | 14.8 | 22.6 | 0.00 | 0.08 | 0.08 | 57 | 1013.4 |
| 20260905223042 | 79 | 360 | 9.6 | 15.6 | 0.00 | 0.08 | 0.08 | 56 | 1013.3 |
| 20260905221541 | 79 | 360 | 13.0 | 23.5 | 0.00 | 0.08 | 0.08 | 56 | 1013.4 |
| 20260905220041 | 80 | 66 | 13.9 | 26.1 | 0.00 | 0.08 | 0.08 | 52 | 1012.6 |
| 20260905214542 | 78 | 48 | 19.1 | 29.5 | 0.00 | 0.08 | 0.08 | 57 | 1012.6 |
| 20260905213045 | 80 | 49 | 22.6 | 34.8 | 0.00 | 0.08 | 0.08 | 56 | 1013.0 |
| 20260905211559 | 89 | 39 | 2.6 | 7.8 | 0.02 | 0.08 | 0.08 | 45 | 1012.7 |
| 20260905210051 | 86 | 355 | 3.5 | 7.8 | 0.05 | 0.08 | 0.08 | 58 | 1012.5 |
| 20260905204539 | 79 | 360 | 6.1 | 10.4 | 0.08 | 0.08 | 0.08 | 73 | 1012.8 |
| 20260905203034 | 75 | 49 | 4.3 | 7.8 | 0.08 | 0.08 | 0.08 | 91 | 1013.4 |
| 20260905201534 | 72 | 248 | 3.5 | 15.6 | 0.06 | 0.06 | 0.06 | 84 | 1013.9 |
| 20260905200032 | 75 | 5 | 12.2 | 22.6 | 0.03 | 0.03 | 0.03 | 77 | 1014.4 |
| 20260905194524 | 83 | 360 | 13.0 | 20.9 | 0.00 | 0.00 | 0.00 | 61 | 1014.0 |
| 20260905193024 | 89 | 360 | 11.3 | 16.5 | 0.00 | 0.00 | 0.00 | 44 | 1013.8 |
| 20260905191521 | 93 | 290 | 5.2 | 11.3 | 0.00 | 0.00 | 0.00 | 36 | 1013.9 |
| 20260905190020 | 95 | 302 | 4.3 | 7.8 | 0.00 | 0.00 | 0.00 | 34 | 1014.3 |
| 20260905184516 | 95 | 313 | 6.1 | 10.4 | 0.00 | 0.00 | 0.00 | 35 | 1014.5 |
| 20260905183020 | 93 | 281 | 4.3 | 9.6 | 0.00 | 0.00 | 0.00 | 35 | 1014.9 |
| 20260905181511 | 91 | 360 | 4.3 | 11.3 | 0.00 | 0.00 | 0.00 | 39 | 1015.3 |
| 20260905180008 | 92 | 261 | 4.3 | 11.3 | 0.00 | 0.00 | 0.00 | 38 | 1015.3 |
| 20260905174504 | 94 | 236 | 2.6 | 8.7 | 0.00 | 0.00 | 0.00 | 38 | 1015.5 |
| 20260905173105 | 91 | 259 | 0.9 | 5.2 | 0.00 | 0.00 | 0.00 | 42 | 1015.6 |
| 20260905171557 | 90 | 275 | 7.0 | 13.0 | 0.00 | 0.00 | 0.00 | 42 | 1015.8 |
| 20260905170054 | 89 | 360 | 2.6 | 10.4 | 0.00 | 0.00 | 0.00 | 43 | 1015.8 |
| 20260905164549 | 89 | 159 | 2.6 | 5.2 | 0.00 | 0.00 | 0.00 | 44 | 1016.0 |
| 20260905163045 | 87 | 259 | 2.6 | 9.6 | 0.00 | 0.00 | 0.00 | 46 | 1016.1 |
| 20260905161540 | 87 | 360 | 4.3 | 7.8 | 0.00 | 0.00 | 0.00 | 45 | 1016.2 |
| 20260905160037 | 86 | 225 | 3.5 | 7.8 | 0.00 | 0.00 | 0.00 | 47 | 1016.3 |
| 20260905154535 | 85 | 198 | 5.2 | 8.7 | 0.00 | 0.00 | 0.00 | 48 | 1016.2 |
| 20260905153027 | 85 | 175 | 1.7 | 4.3 | 0.00 | 0.00 | 0.00 | 50 | 1016.2 |
| 20260905151523 | 84 | 200 | 0.9 | 5.2 | 0.00 | 0.00 | 0.00 | 52 | 1016.2 |
| 20260905150020 | 83 | 273 | 0.9 | 5.2 | 0.00 | 0.00 | 0.00 | 52 | 1016.3 |
| 20260905144514 | 82 | 324 | 0.0 | 4.3 | 0.00 | 0.00 | 0.00 | 53 | 1016.3 |
| 20260905143010 | 81 | 319 | 2.6 | 4.3 | 0.00 | 0.00 | 0.00 | 57 | 1016.3 |
| 20260905141520 | 80 | 360 | 4.3 | 7.8 | 0.00 | 0.00 | 0.00 | 59 | 1016.1 |
| 20260905140000 | 78 | 346 | 1.7 | 4.3 | 0.00 | 0.00 | 0.00 | 67 | 1016.1 |
| 20260905134600 | 77 | 360 | 1.7 | 4.3 | 0.00 | 0.00 | 0.00 | 67 | 1016.0 |
| 20260905133056 | 75 | 360 | 1.7 | 5.2 | 0.00 | 0.00 | 0.00 | 71 | 1015.9 |
| 20260905131550 | 74 | 321 | 3.5 | 7.0 | 0.00 | 0.00 | 0.00 | 71 | 1015.8 |
| 20260905130044 | 74 | 313 | 2.6 | 5.2 | 0.00 | 0.00 | 0.00 | 71 | 1015.6 |
| 20260905124542 | 74 | 360 | 3.5 | 7.0 | 0.00 | 0.00 | 0.00 | 70 | 1015.5 |
| 20260905123037 | 74 | 360 | 4.3 | 7.0 | 0.00 | 0.00 | 0.00 | 69 | 1015.4 |
| 20260905121534 | 75 | 360 | 3.5 | 7.8 | 0.00 | 0.00 | 0.00 | 67 | 1015.4 |
| 20260905120033 | 75 | 360 | 2.6 | 7.0 | 0.00 | 0.00 | 0.00 | 67 | 1015.2 |
| 20260905114532 | 76 | 360 | 4.3 | 7.0 | 0.00 | 0.00 | 0.00 | 66 | 1015.2 |
| 20260905113030 | 76 | 360 | 3.5 | 7.0 | 0.00 | 0.00 | 0.00 | 66 | 1015.2 |
| 20260905111529 | 77 | 360 | 4.3 | 7.0 | 0.00 | 0.00 | 0.00 | 64 | 1015.2 |
| 20260905110026 | 77 | 360 | 3.5 | 5.2 | 0.00 | 0.00 | 0.00 | 64 | 1015.3 |
| 20260905104526 | 77 | 360 | 5.2 | 7.8 | 0.00 | 0.00 | 0.00 | 64 | 1015.3 |
| 20260905103024 | 77 | 360 | 6.1 | 10.4 | 0.00 | 0.00 | 0.00 | 64 | 1015.2 |
| 20260905101527 | 77 | 360 | 6.1 | 12.2 | 0.00 | 0.00 | 0.00 | 63 | 1015.2 |
| 20260905100023 | 77 | 360 | 5.2 | 9.6 | 0.00 | 0.00 | 0.00 | 64 | 1015.1 |
| 20260905094524 | 77 | 360 | 7.8 | 11.3 | 0.00 | 0.00 | 0.00 | 63 | 1015.2 |
| 20260905093020 | 77 | 360 | 5.2 | 9.6 | 0.00 | 0.00 | 0.00 | 61 | 1015.0 |
| 20260905091621 | 78 | 360 | 7.0 | 9.6 | 0.00 | 0.00 | 0.00 | 60 | 1015.0 |
| 20260905090017 | 78 | 360 | 4.3 | 10.4 | 0.00 | 0.00 | 0.00 | 59 | 1014.9 |
| 20260905084515 | 78 | 360 | 8.7 | 11.3 | 0.00 | 0.00 | 0.00 | 59 | 1015.1 |
| 20260905083019 | 79 | 360 | 7.0 | 12.2 | 0.00 | 0.00 | 0.00 | 57 | 1015.1 |
| 20260905081514 | 78 | 360 | 8.7 | 10.4 | 0.00 | 0.00 | 0.00 | 58 | 1014.9 |
| 20260905080012 | 79 | 360 | 8.7 | 11.3 | 0.00 | 0.00 | 0.00 | 58 | 1014.7 |
| 20260905074516 | 79 | 360 | 7.8 | 10.4 | 0.00 | 0.00 | 0.00 | 58 | 1015.1 |
| 20260905073010 | 79 | 360 | 7.8 | 10.4 | 0.00 | 0.00 | 0.00 | 57 | 1015.2 |
| 20260905071516 | 79 | 360 | 8.7 | 11.3 | 0.00 | 0.00 | 0.00 | 57 | 1015.0 |
| 20260905070008 | 79 | 360 | 7.0 | 10.4 | 0.00 | 0.00 | 0.00 | 56 | 1015.0 |
| 20260905064505 | 79 | 360 | 6.1 | 10.4 | 0.00 | 0.00 | 0.00 | 56 | 1015.1 |
| 20260905063003 | 79 | 169 | 5.2 | 7.8 | 0.00 | 0.00 | 0.00 | 56 | 1015.2 |
| 20260905061501 | 80 | 360 | 4.3 | 7.0 | 0.00 | 0.00 | 0.00 | 55 | 1015.0 |
| 20260905060100 | 80 | 360 | 3.5 | 12.2 | 0.00 | 0.00 | 0.00 | 54 | 1015.2 |
| 20260905054558 | 80 | 360 | 5.2 | 8.7 | 0.00 | 0.00 | 0.00 | 54 | 1015.0 |
| 20260905053054 | 80 | 360 | 2.6 | 7.8 | 0.00 | 0.00 | 0.00 | 54 | 1014.9 |
| 20260905051553 | 80 | 360 | 4.3 | 7.0 | 0.00 | 0.00 | 0.00 | 54 | 1014.7 |
| 20260905050050 | 81 | 360 | 1.7 | 5.2 | 0.00 | 0.00 | 0.00 | 52 | 1014.7 |
| 20260905044549 | 81 | 360 | 2.6 | 7.8 | 0.00 | 0.00 | 0.00 | 53 | 1014.8 |
| 20260905043049 | 82 | 360 | 3.5 | 15.6 | 0.00 | 0.00 | 0.00 | 50 | 1014.8 |
| 20260905041552 | 83 | 360 | 7.8 | 14.8 | 0.00 | 0.00 | 0.00 | 49 | 1015.0 |
| 20260905040054 | 83 | 360 | 8.7 | 14.8 | 0.00 | 0.00 | 0.00 | 47 | 1014.9 |
| 20260905034547 | 83 | 360 | 5.2 | 10.4 | 0.00 | 0.00 | 0.00 | 44 | 1015.0 |
| 20260905033047 | 83 | 360 | 10.4 | 12.2 | 0.00 | 0.00 | 0.00 | 47 | 1014.9 |
| 20260905031548 | 83 | 360 | 10.4 | 13.0 | 0.00 | 0.00 | 0.00 | 46 | 1014.7 |
| 20260905030048 | 82 | 360 | 7.8 | 10.4 | 0.00 | 0.00 | 0.00 | 47 | 1014.6 |
| 20260905024548 | 83 | 360 | 7.0 | 10.4 | 0.00 | 0.00 | 0.00 | 47 | 1014.5 |